TimeIST,TemperatureF,Dew PointF,Humidity,Sea Level PressureIn,VisibilityMPH,Wind Direction,Wind SpeedMPH,Gust SpeedMPH,PrecipitationIn,Events,Conditions,WindDirDegrees,DateUTC
12:00 AM,48.2,44.6,87,30.36,6.2,West,3.5,-,N/A,,Scattered Clouds,270,2013-05-31 23:00:00
12:30 AM,48.2,44.6,87,30.36,6.2,WSW,4.6,-,N/A,,Scattered Clouds,240,2013-05-31 23:30:00
1:00 AM,47,44,87,30.36,12,WSW,6.7,,,,Scattered Clouds,250,2013-06-01 00:00:00
1:00 AM,46.4,44.6,93,30.36,6.2,WSW,5.8,-,N/A,,Mostly Cloudy,250,2013-06-01 00:00:00
1:30 AM,48.2,46.4,93,30.33,6.2,WSW,8.1,-,N/A,,Mostly Cloudy,240,2013-06-01 00:30:00
2:00 AM,50.0,46.4,87,30.33,6.2,WSW,9.2,-,N/A,,Mostly Cloudy,240,2013-06-01 01:00:00
2:30 AM,50.0,46.4,87,30.33,6.2,WSW,9.2,-,N/A,,Mostly Cloudy,240,2013-06-01 01:30:00
3:00 AM,50.0,48.2,94,30.33,6.2,WSW,9.2,-,N/A,,Mostly Cloudy,250,2013-06-01 02:00:00
3:30 AM,50.0,48.2,94,30.33,6.2,WSW,9.2,-,N/A,,Mostly Cloudy,250,2013-06-01 02:30:00
4:00 AM,50.0,48.2,94,30.33,6.2,West,8.1,-,N/A,,Mostly Cloudy,260,2013-06-01 03:00:00
4:30 AM,50.0,46.4,87,30.33,6.2,West,10.4,-,N/A,,Mostly Cloudy,260,2013-06-01 03:30:00
5:00 AM,50.0,46.4,87,30.33,6.2,West,8.1,-,N/A,,Partly Cloudy,260,2013-06-01 04:00:00
5:30 AM,48.2,44.6,87,30.33,6.2,West,6.9,-,N/A,,Scattered Clouds,260,2013-06-01 04:30:00
6:00 AM,48.2,44.6,87,30.33,6.2,West,8.1,-,N/A,,Scattered Clouds,260,2013-06-01 05:00:00
6:30 AM,50.0,46.4,87,30.36,6.2,West,9.2,-,N/A,,Partly Cloudy,260,2013-06-01 05:30:00
7:00 AM,49,46,86,30.38,16,West,8.9,,,,Mostly Cloudy,260,2013-06-01 06:00:00
7:00 AM,50.0,46.4,87,30.36,6.2,West,8.1,-,N/A,,Mostly Cloudy,260,2013-06-01 06:00:00
7:30 AM,50.0,46.4,87,30.36,6.2,WSW,6.9,-,N/A,,Mostly Cloudy,250,2013-06-01 06:30:00
8:00 AM,50.0,46.4,87,30.36,6.2,WSW,8.1,-,N/A,,Mostly Cloudy,240,2013-06-01 07:00:00
8:30 AM,51.8,48.2,88,30.36,6.2,WSW,9.2,-,N/A,,Mostly Cloudy,240,2013-06-01 07:30:00
9:00 AM,53.6,48.2,82,30.36,6.2,WSW,9.2,-,N/A,,Mostly Cloudy,250,2013-06-01 08:00:00
9:30 AM,53.6,44.6,72,30.36,6.2,West,15.0,-,N/A,,Mostly Cloudy,270,2013-06-01 08:30:00
10:00 AM,55.4,46.4,72,30.36,6.2,West,15.0,-,N/A,,Mostly Cloudy,270,2013-06-01 09:00:00
10:30 AM,53.6,46.4,77,30.36,6.2,West,17.3,-,N/A,Rain,Light Rain,270,2013-06-01 09:30:00
11:00 AM,53.6,46.4,77,30.36,6.2,West,16.1,-,N/A,,Mostly Cloudy,280,2013-06-01 10:00:00
11:30 AM,55.4,46.4,72,30.36,6.2,West,15.0,-,N/A,,Mostly Cloudy,270,2013-06-01 10:30:00
12:00 PM,55.4,48.2,77,30.36,6.2,West,16.1,-,N/A,,Mostly Cloudy,260,2013-06-01 11:00:00
12:30 PM,55.4,46.4,72,30.39,6.2,West,16.1,-,N/A,,Mostly Cloudy,270,2013-06-01 11:30:00
1:00 PM,57,48,62,30.39,16,WSW,13.4,,,,Partly Cloudy,250,2013-06-01 12:00:00
1:00 PM,57.2,48.2,72,30.39,6.2,WSW,13.8,-,N/A,,Mostly Cloudy,250,2013-06-01 12:00:00
1:30 PM,57.2,48.2,72,30.36,6.2,West,15.0,-,N/A,,Mostly Cloudy,280,2013-06-01 12:30:00
2:00 PM,57.2,48.2,72,30.39,6.2,West,16.1,-,N/A,,Mostly Cloudy,270,2013-06-01 13:00:00
2:30 PM,59.0,48.2,67,30.39,6.2,West,16.1,-,N/A,,Mostly Cloudy,270,2013-06-01 13:30:00
3:00 PM,57.2,48.2,72,30.39,6.2,West,16.1,-,N/A,,Mostly Cloudy,270,2013-06-01 14:00:00
3:30 PM,57.2,48.2,72,30.39,6.2,West,17.3,-,N/A,,Mostly Cloudy,270,2013-06-01 14:30:00
4:00 PM,55.4,48.2,77,30.39,6.2,West,15.0,-,N/A,,Mostly Cloudy,280,2013-06-01 15:00:00
4:30 PM,57.2,48.2,72,30.39,6.2,West,16.1,-,N/A,,Mostly Cloudy,280,2013-06-01 15:30:00
5:00 PM,57.2,46.4,67,30.39,6.2,West,13.8,-,N/A,,Mostly Cloudy,270,2013-06-01 16:00:00
5:30 PM,57.2,48.2,72,30.39,6.2,West,12.7,-,N/A,,Mostly Cloudy,280,2013-06-01 16:30:00
6:00 PM,57.2,48.2,72,30.39,6.2,West,15.0,-,N/A,,Mostly Cloudy,280,2013-06-01 17:00:00
6:30 PM,57.2,48.2,72,30.39,6.2,West,13.8,-,N/A,,Mostly Cloudy,280,2013-06-01 17:30:00
7:00 PM,58,48,60,30.42,19,West,13.4,,,,Partly Cloudy,260,2013-06-01 18:00:00
7:00 PM,57.2,48.2,72,30.39,6.2,West,13.8,-,N/A,,Scattered Clouds,260,2013-06-01 18:00:00
7:30 PM,55.4,46.4,72,30.42,6.2,West,13.8,-,N/A,,Partly Cloudy,270,2013-06-01 18:30:00
8:00 PM,55.4,48.2,77,30.42,6.2,West,9.2,-,N/A,,Partly Cloudy,280,2013-06-01 19:00:00
8:30 PM,53.6,48.2,82,30.42,6.2,West,10.4,-,N/A,,Partly Cloudy,280,2013-06-01 19:30:00
9:00 PM,53.6,48.2,82,30.42,6.2,West,6.9,-,N/A,,Partly Cloudy,270,2013-06-01 20:00:00
9:30 PM,51.8,48.2,88,30.42,6.2,West,8.1,-,N/A,,Partly Cloudy,270,2013-06-01 20:30:00
10:00 PM,51.8,46.4,82,30.45,6.2,West,8.1,-,N/A,,Partly Cloudy,260,2013-06-01 21:00:00
10:30 PM,50.0,46.4,87,30.45,6.2,West,8.1,-,N/A,,Partly Cloudy,260,2013-06-01 21:30:00
11:00 PM,50.0,48.2,94,30.45,6.2,West,4.6,-,N/A,,Scattered Clouds,270,2013-06-01 22:00:00
11:30 PM,51.8,48.2,88,30.45,6.2,WSW,5.8,-,N/A,,Light Drizzle,250,2013-06-01 22:30:00